Flag for U.S.A. Weather past 2 weeks in Antioch, California, U.S.A.

Now
60 °F

Clear.


Feels Like: 60 °F
Forecast: 61 / 84 °F
Wind: No wind

Location: Buchanan Field

Current Time: Sep 17, 2014 at 7:11:36 AM

Latest Report: Sep 17, 2014 at 5:53 AM


Visibility: 10 mi

Pressure: 29.75 "Hg

Humidity: 83%

Dew point: 55 °F

Location of AntiochLocation

Historic Weather in Antioch — Graph

°F

Antioch temperature yesterday

Maximum temperature yesterday: 87 °F (at 3:53 PM)
Minimum temperature yesterday: 59 °F (at 6:53 AM)
Average temperature yesterday: 71 °F

Past Weeks' High & Low Weather Summary

 TemperatureHumidityPressure
High97 °F (Sep 11, 4:53 PM)93% (Sep 10, 1:53 AM)29.96 "Hg (Sep 10, 1:53 AM)
Low54 °F (Sep 10, 6:53 AM)11% (Sep 10, 4:53 PM)29.62 "Hg (Sep 3, 4:53 PM)
Average70 °F61%29.79 "Hg
* Reported Sep 2 5:53 AM — Sep 17 5:53 AM, Antioch, Weather by CustomWeather, © 2014

Note: Actual official high and low records may vary slightly from our data, if they occured in-between our weather recording intervals... More about our weather records

Advertising

Antioch weather history for previous 24 hours

 ConditionsComfort  
Time TempWeatherWind HumidityBarometerVisibility
5:53 AM
Sep 17
60 °FClear.No wind83%29.75 "Hg10 mi
4:53 AM61 °FCool.No wind78%29.75 "Hg10 mi
3:53 AM61 °FClear.No wind81%29.75 "Hg10 mi
2:53 AM63 °FClear.5 mph78%29.75 "Hg10 mi
1:53 AM64 °FClear.7 mph73%29.76 "Hg10 mi
12:53 AM65 °FClear.5 mph73%29.77 "Hg10 mi
11:53 PM
Sep 16
66 °FClear.6 mph70%29.77 "Hg10 mi
10:53 PM66 °FClear.7 mph70%29.78 "Hg10 mi
9:53 PM68 °FClear.8 mph65%29.77 "Hg10 mi
8:53 PM71 °FClear.3 mph53%29.76 "Hg10 mi
7:53 PM76 °FSunny.7 mph48%29.75 "Hg10 mi
6:53 PM79 °FSunny.10 mph44%29.74 "Hg10 mi
5:53 PM82 °FSunny.14 mph37%29.73 "Hg10 mi
4:53 PM86 °FSunny.14 mph30%29.73 "Hg10 mi
3:53 PM87 °FSunny.14 mph23%29.75 "Hg10 mi
2:53 PM86 °FSunny.14 mph25%29.78 "Hg10 mi
1:53 PM84 °FSunny.10 mph29%29.81 "Hg10 mi
12:53 PM80 °FSunny.7 mph32%29.83 "Hg10 mi
11:53 AM78 °FSunny.7 mph36%29.85 "Hg10 mi
10:53 AM74 °FSunny.8 mph48%29.87 "Hg10 mi
9:53 AM70 °FSunny.3 mph57%29.88 "Hg10 mi
8:53 AM65 °FSunny.5 mph70%29.88 "Hg10 mi
7:53 AM61 °FSunny.3 mph81%29.88 "Hg10 mi
Weather by CustomWeather, © 2014

See weather overviewHow to use our weather pages